Flag for Austria Weather past 2 weeks in Graz, Styria, Austria

Now
64 °F

Partly sunny.


Feels Like: 64 °F
Forecast: 45 / 61 °F
Wind: 12 mph from North

Location: Graz-Thalerhof-Flughafen

Current Time: May 26, 2015 at 12:53:21 PM

Latest Report: May 26, 2015 at 11:50 AM


Visibility: N/A

Pressure: 29.83 "Hg

Humidity: 49%

Dew point: 45 °F

Location of GrazLocation

Historic Weather in Graz — Graph

°F

Graz temperature yesterday

Maximum temperature yesterday: 68 °F (at 1:50 PM)
Minimum temperature yesterday: 54 °F (at 1:50 AM)
Average temperature yesterday: 60 °F

Past Weeks' High & Low Weather Summary

 TemperatureHumidityPressure
High79 °F (May 13, 1:20 PM)100% (May 13, 9:50 PM)30.33 "Hg (May 13, 9:50 PM)
Low41 °F (May 12, 5:20 AM)36% (May 12, 2:50 PM)29.74 "Hg (May 19, 1:20 PM)
Average59 °F75%29.99 "Hg
* Reported May 11 11:20 AM — May 26 11:50 AM, Graz, Weather by CustomWeather, © 2015

Note: Actual official high and low records may vary slightly from our data, if they occured in-between our weather recording intervals... More about our weather records

Advertising

Graz weather history for previous 24 hours

 ConditionsComfort  
Time TempWeatherWind HumidityBarometerVisibility
11:50 AM
Tue, May 26
64 °FPartly sunny.12 mph49%29.83 "HgN/A
11:20 AM64 °FPartly sunny.8 mph56%29.83 "HgN/A
10:50 AM61 °FPartly sunny.2 mph72%29.83 "HgN/A
10:20 AM59 °FPartly sunny.2 mph77%29.83 "HgN/A
9:50 AM59 °FPartly sunny.1 mph77%29.80 "HgN/A
9:20 AM57 °FPartly sunny.2 mph82%29.80 "HgN/A
8:50 AM59 °FPartly sunny.2 mph68%29.80 "HgN/A
8:20 AM57 °FBroken clouds.3 mph72%29.80 "HgN/A
7:50 AM57 °FBroken clouds.5 mph77%29.80 "HgN/A
7:20 AM55 °FLight rain. Partly sunny.1 mph88%29.80 "HgN/A
6:50 AM55 °FPartly sunny.2 mph88%29.80 "HgN/A
6:20 AM55 °FPartly sunny.1 mph82%29.80 "HgN/A
5:50 AM54 °FPassing clouds.5 mph88%29.77 "HgN/A
5:20 AM57 °FClear.3 mph67%29.77 "Hg10 mi
4:50 AM55 °FClear.2 mph77%29.77 "Hg10 mi
4:20 AM55 °FPassing clouds.3 mph82%29.77 "HgN/A
3:50 AM55 °FPassing clouds.2 mph82%29.80 "HgN/A
3:20 AM57 °FPartly cloudy.1 mph77%29.80 "HgN/A
2:50 AM55 °FPassing clouds.1 mph88%29.80 "HgN/A
2:20 AM55 °FOvercast.1 mph88%29.80 "HgN/A
1:50 AM55 °FPassing clouds.2 mph88%29.80 "HgN/A
1:20 AM57 °FPassing clouds.1 mph88%29.80 "HgN/A
12:50 AM57 °FPassing clouds.1 mph88%29.80 "HgN/A
12:20 AM59 °FPassing clouds.2 mph82%29.80 "HgN/A
11:50 PM
Mon, May 25
57 °FSprinkles. Overcast.1 mph88%29.83 "HgN/A
11:20 PM59 °FPassing clouds.2 mph82%29.83 "HgN/A
10:50 PM59 °FPassing clouds.2 mph82%29.83 "HgN/A
10:20 PM59 °FPassing clouds.2 mph77%29.83 "HgN/A
9:50 PM59 °FPartly cloudy.1 mph82%29.83 "HgN/A
9:20 PM59 °FSunny.1 mph82%29.83 "Hg10 mi
8:50 PM61 °FBroken clouds.1 mph72%29.80 "HgN/A
8:20 PM63 °FBroken clouds.2 mph68%29.80 "HgN/A
7:50 PM63 °FBroken clouds.3 mph68%29.80 "HgN/A
7:20 PM63 °FBroken clouds.5 mph73%29.80 "HgN/A
6:50 PM63 °FPartly sunny.5 mph77%29.80 "HgN/A
6:20 PM63 °FPartly sunny.5 mph73%29.83 "HgN/A
5:50 PM63 °FPartly sunny.7 mph77%29.83 "HgN/A
5:20 PM63 °FPartly sunny.6 mph77%29.83 "HgN/A
4:50 PM64 °FMore clouds than sun.6 mph73%29.83 "HgN/A
4:20 PM66 °FMore clouds than sun.5 mph49%29.83 "HgN/A
3:50 PM66 °FMore clouds than sun.8 mph46%29.83 "HgN/A
3:20 PM66 °FMore clouds than sun.8 mph46%29.86 "HgN/A
2:50 PM66 °FBroken clouds.10 mph46%29.86 "HgN/A
2:20 PM66 °FBroken clouds.8 mph46%29.86 "HgN/A
1:50 PM68 °FBroken clouds.13 mph43%29.86 "HgN/A
1:20 PM66 °FBroken clouds.10 mph49%29.86 "HgN/A
12:50 PM66 °FPartly sunny.10 mph49%29.86 "HgN/A
12:20 PM66 °FPartly sunny.12 mph49%29.86 "HgN/A
Weather by CustomWeather, © 2015

See weather overviewHow to use our weather pages